Location: Ajisawe
(8.4333°N, 4.3833°E)
Time: 16:48:21
(UTC+00:00)

Envisat - Visible Passes

Search period start: 25 February 2021 00:00
Search period end: 07 March 2021 00:00
Orbit: 764 x 766 km, 98.1° (Epoch: 25 February)

Date Brightness Start Highest point End Pass type
(mag) Time Alt. Az. Time Alt. Az. Time Alt. Az.
25 Feb 6.2 03:57:49 10° E 03:59:34 12° E 04:01:18 10° ESE visible
25 Feb 3.4 05:33:41 10° N 05:38:23 40° WNW 05:43:07 10° SW visible
25 Feb 6.8 18:13:04 10° WSW 18:14:05 11° W 18:15:07 10° W visible
26 Feb 3.3 04:56:38 10° NNE 05:01:41 71° ESE 05:06:44 10° S visible
27 Feb 5.3 04:20:50 10° NE 04:24:56 25° E 04:29:02 10° SSE visible
28 Feb 3.1 05:22:04 10° N 05:27:00 55° WNW 05:31:57 10° SSW visible
01 Mar 3.9 04:45:22 10° NNE 04:50:17 51° ESE 04:55:12 10° S visible
02 Mar 5.7 04:10:05 10° ENE 04:13:31 18° E 04:16:56 10° SE visible
03 Mar 2.9 05:10:33 10° N 05:15:37 76° WNW 05:20:41 10° SSW visible
04 Mar 4.5 04:34:13 10° NE 04:38:52 37° E 04:43:32 10° SSE visible
05 Mar 6.1 03:59:46 10° ENE 04:02:06 13° E 04:04:26 10° SE visible
06 Mar 3.1 04:59:09 10° NNE 05:04:13 79° ESE 05:09:18 10° S visible
